Stations météo

réclame
Mon MeteoGroup
Hawarden, Grande-Bretagne (3321): Température de l'air & dewpoint: 08.08.2020 20:00:00 - 14.08.2020 20:00:00 (BST)Hawarden, Grande-Bretagne (3321): Température de l'air -20cm & Température de l'air -100cm: 08.08.2020 20:00:00 - 14.08.2020 20:00:00 (BST)Hawarden, Grande-Bretagne (3321): Vitesse du vent & gusts: 08.08.2020 20:00:00 - 14.08.2020 20:00:00 (BST)Hawarden, Grande-Bretagne (3321): Direction du vent: 08.08.2020 20:00:00 - 14.08.2020 20:00:00 (BST)Hawarden, Grande-Bretagne (3321): reduced air pressure: 08.08.2020 20:00:00 - 14.08.2020 20:00:00 (BST)Hawarden, Grande-Bretagne (3321): visibility: 08.08.2020 20:00:00 - 14.08.2020 20:00:00 (BST)Hawarden, Grande-Bretagne (3321): Ensoleillement: 08.08.2020 20:00:00 - 14.08.2020 20:00:00 (BST)Hawarden, Grande-Bretagne (3321): Quantités de précipitations: 08.08.2020 20:00:00 - 14.08.2020 20:00:00 (BST)
Date & Time tt [°C] td [°C] tt -20cm [°C] tt -100cm [°C] ff [km/h] ff [knt] fx [km/h] fx [knt] dd ppp [hPa] vv [km] sd [min] rr [mm]
14.08.2020 20:00:00 21,8 17,8 - - 9 5 - - NNW 1015,3 17 6 0,0
14.08.2020 19:00:00 23,0 18,0 - - 13 7 - - NW 1014,7 9 60 0,0
14.08.2020 18:00:00 24,4 17,3 - - 8 4 - - S 1014,6 9 60 0,0
14.08.2020 17:00:00 24,6 17,1 - - 4 2 - - - 1014,6 9 60 0,0
14.08.2020 16:00:00 23,8 17,0 - - 4 2 - - - 1014,8 9 60 0,0
14.08.2020 15:00:00 23,1 17,0 - - 4 2 - - - 1015,1 9 60 0,0
14.08.2020 14:00:00 21,4 16,5 - - 4 2 - - - 1015,6 9 42 0,0
14.08.2020 13:00:00 21,0 15,9 - - 4 2 - - - 1015,8 5 12 0,0
14.08.2020 12:00:00 19,0 14,9 - - 5 3 - - - 1015,8 4,5 0 0,0
14.08.2020 11:00:00 18,4 15,5 - - 8 4 - - NE 1015,5 4,5 0 0,0
14.08.2020 10:00:00 17,7 15,2 20,0 16,7 8 4 - - ENE 1015,7 5 0 0,0
14.08.2020 09:00:00 17,2 15,5 - - 8 4 - - ENE 1015,6 10 0 0,0
14.08.2020 08:00:00 16,7 15,4 - - 11 6 - - ENE 1015,4 10 0 0,0
14.08.2020 07:00:00 16,9 15,4 - - 4 2 - - NE 1015,2 10 0 0,0
14.08.2020 06:00:00 16,8 15,5 - - 5 3 - - NE 1015,2 9 0 0,0
14.08.2020 05:00:00 16,8 15,3 - - 4 2 - - ESE 1014,9 9 0 0,0
14.08.2020 04:00:00 16,9 15,3 - - 5 3 - - ESE 1015,1 10 0 0,0
14.08.2020 03:00:00 16,8 15,3 - - 4 2 - - NNE 1015,1 7 0 0,0
14.08.2020 02:00:00 17,0 15,2 - - 8 4 - - N 1015,0 9 0 0,0
14.08.2020 01:00:00 17,4 15,9 - - 5 3 - - NNW 1015,0 8 - 0,2
14.08.2020 00:00:00 17,8 15,9 - - 8 4 - - NE 1015,5 8 0 0,0
13.08.2020 23:00:00 18,6 15,7 - - 9 5 - - NE 1015,4 13 0 0,0
13.08.2020 22:00:00 19,3 16,3 - - 9 5 - - NE 1015,3 16 0 0,0
13.08.2020 21:00:00 20,0 16,6 - - 13 7 - - NE 1014,8 14 0 0,0
13.08.2020 20:00:00 21,3 17,2 - - 13 7 - - NE 1014,6 24 6 0,0
13.08.2020 19:00:00 22,4 17,2 - - 13 7 - - ENE 1014,1 9 0 0,0
13.08.2020 18:00:00 23,3 17,9 - - 15 8 - - E 1014,0 9 0 0,0
13.08.2020 17:00:00 24,4 18,7 - - 16 9 - - E 1013,9 9 0 0,0
13.08.2020 16:00:00 24,9 19,5 - - 13 7 - - E 1013,7 8 24 0,0
13.08.2020 15:00:00 26,8 19,6 - - 13 7 - - E 1013,8 10 36 0,0
13.08.2020 14:00:00 26,5 19,7 - - 11 6 - - ENE 1014,2 10 36 0,0
13.08.2020 13:00:00 25,6 18,6 - - 5 3 - - - 1014,0 10 54 0,0
13.08.2020 12:00:00 24,4 18,8 - - 8 4 - - ENE 1014,1 15 60 0,0
13.08.2020 11:00:00 24,0 18,8 - - 4 2 - - - 1014,1 10 60 0,0
13.08.2020 10:00:00 22,3 17,8 19,7 16,4 4 2 - - - 1014,2 10 60 0,0
13.08.2020 09:00:00 20,7 17,9 - - 5 3 - - N 1014,3 10 42 0,0
13.08.2020 08:00:00 20,2 18,1 - - 5 3 - - - 1014,2 10 54 0,0
13.08.2020 07:00:00 18,8 18,0 - - 5 3 - - NW 1014,0 7 0 0,0
13.08.2020 06:00:00 18,3 17,6 - - 5 3 - - NNW 1013,7 10 0 0,0
13.08.2020 05:00:00 18,5 17,4 - - 2 1 - - WNW 1013,9 12 0 0,2
13.08.2020 04:00:00 18,4 17,8 - - 9 5 - - NNW 1014,0 11 0 0,0
13.08.2020 03:00:00 18,8 17,7 - - 9 5 - - SSE 1014,4 20 0 0,0
13.08.2020 02:00:00 19,0 18,4 - - 18 10 - - E 1013,7 21 0 0,2
13.08.2020 01:00:00 18,7 17,8 - - 8 4 - - SSE 1013,8 12 - 2,8
13.08.2020 00:00:00 19,2 18,0 - - 13 7 - - S 1015,5 7 0 4,0
12.08.2020 23:00:00 19,5 18,5 - - 22 12 57 31 S 1015,7 8 0 4,0
12.08.2020 22:00:00 20,1 18,3 - - 31 17 48 26 S 1015,0 11 0 4,0
12.08.2020 21:00:00 20,4 18,0 - - 13 7 - - SE 1013,7 19 0 1,0
12.08.2020 20:00:00 21,4 19,5 - - 22 12 - - S 1014,9 6 0 0,4
12.08.2020 19:00:00 22,1 18,7 - - 18 10 - - NE 1012,9 10 0 0,0
12.08.2020 18:00:00 23,1 18,5 - - 26 14 - - NW 1013,2 10 0 0,0
12.08.2020 17:00:00 26,1 18,9 - - 22 12 - - NW 1013,2 10 18 0,0
12.08.2020 16:00:00 29,7 18,9 - - 8 4 - - ENE 1013,2 10 48 0,0
12.08.2020 15:00:00 28,8 18,3 - - 8 4 - - E 1013,7 10 54 0,0
12.08.2020 14:00:00 28,3 18,0 - - 5 3 - - - 1014,0 10 60 0,0
12.08.2020 13:00:00 27,2 17,6 - - 4 2 - - - 1014,3 10 60 0,0
12.08.2020 12:00:00 26,2 18,3 - - 4 2 - - - 1014,3 10 48 0,0
12.08.2020 11:00:00 24,8 19,4 - - 4 2 - - - 1014,8 9 60 0,0
12.08.2020 10:00:00 22,3 18,6 19,4 16,2 8 4 - - NNW 1014,9 7 60 0,0
12.08.2020 09:00:00 20,2 18,4 - - 8 4 - - N 1014,6 5 42 0,0
12.08.2020 08:00:00 18,4 18,1 - - 2 1 - - - 1014,6 1,7 0 0,0
12.08.2020 07:00:00 17,9 17,6 - - 2 1 - - NNW 1014,3 0,2 0 0,0
12.08.2020 06:00:00 17,9 17,5 - - 4 2 - - WNW 1014,3 2,4 0 0,0
12.08.2020 05:00:00 18,0 17,3 - - 8 4 - - NW 1013,9 3,8 0 0,0
12.08.2020 04:00:00 17,7 16,7 - - 5 3 - - NW 1014,1 3,2 0 0,0
12.08.2020 03:00:00 18,1 17,2 - - 4 2 - - WNW 1014,6 4,4 0 0,0
12.08.2020 02:00:00 18,3 16,8 - - 5 3 - - NE 1015,0 4,9 0 0,0
12.08.2020 01:00:00 19,2 17,3 - - 9 5 - - WNW 1014,9 6 - 0,0
12.08.2020 00:00:00 19,8 17,3 - - 4 2 - - NNE 1015,6 8 0 0,0
11.08.2020 23:00:00 20,5 17,7 - - 9 5 - - NNW 1014,9 8 0 0,0
11.08.2020 22:00:00 21,2 17,5 - - 8 4 - - NW 1015,7 10 0 0,0
11.08.2020 21:00:00 21,5 17,6 - - 11 6 - - NW 1015,4 9 0 0,0
11.08.2020 20:00:00 21,4 17,6 - - 15 8 - - NNW 1014,7 10 0 0,0
11.08.2020 19:00:00 22,9 17,9 - - 24 13 - - NW 1014,4 8 36 0,0
11.08.2020 18:00:00 24,4 18,1 - - 21 11 - - NW 1014,7 8 60 0,0
11.08.2020 17:00:00 25,1 18,6 - - 22 12 - - NW 1014,8 8 54 0,0
11.08.2020 16:00:00 26,3 19,0 - - 13 7 - - NW 1014,9 8 60 0,0
11.08.2020 15:00:00 27,4 19,3 - - 5 3 - - - 1015,2 7 60 0,0
11.08.2020 14:00:00 25,8 18,7 - - 5 3 - - - 1015,5 8 60 0,0
11.08.2020 13:00:00 24,9 18,8 - - 8 4 - - SSE 1015,9 9 60 0,0
11.08.2020 12:00:00 24,3 19,4 - - 9 5 - - SSE 1016,1 9 60 0,0
11.08.2020 11:00:00 22,7 18,2 - - 9 5 - - SE 1016,1 9 54 0,0
11.08.2020 10:00:00 21,7 18,1 18,5 16,0 8 4 - - SSE 1016,1 9 60 0,0
11.08.2020 09:00:00 20,6 18,1 - - 5 3 - - - 1016,1 9 60 0,0
11.08.2020 08:00:00 18,4 17,6 - - 2 1 - - - 1015,8 10 30 0,0
11.08.2020 07:00:00 16,6 15,8 - - 4 2 - - W 1015,8 6 0 0,0
11.08.2020 06:00:00 16,8 15,8 - - 4 2 - - W 1015,9 5 0 0,0
11.08.2020 05:00:00 17,9 16,8 - - 5 3 - - WNW 1016,0 9 0 0,0
11.08.2020 04:00:00 18,2 17,4 - - 8 4 - - NNW 1016,3 7 0 0,0
11.08.2020 03:00:00 18,5 17,7 - - 8 4 - - NW 1016,2 7 0 0,0
11.08.2020 02:00:00 18,2 17,0 - - 5 3 - - NNE 1016,0 14 0 0,0
11.08.2020 01:00:00 19,1 17,5 - - 11 6 - - NNW 1016,2 12 - 1,8
11.08.2020 00:00:00 19,3 16,5 - - 16 9 - - W 1015,9 17 0 0,0
10.08.2020 23:00:00 19,5 17,1 - - 5 3 - - NW 1015,7 15 0 0,0
10.08.2020 22:00:00 18,9 16,8 - - 8 4 - - NNE 1015,6 15 0 0,0
10.08.2020 21:00:00 19,2 16,7 - - 9 5 - - NW 1015,5 15 0 0,0
10.08.2020 20:00:00 19,1 16,4 - - 9 5 - - NW 1015,9 19 0 0,0
10.08.2020 19:00:00 18,9 16,6 - - 22 12 - - NW 1015,9 9 6 1,0
10.08.2020 18:00:00 19,3 17,2 - - 22 12 - - NNW 1015,8 8 0 1,0
10.08.2020 17:00:00 21,0 16,0 - - 22 12 - - NW 1016,8 9 6 0,0
10.08.2020 16:00:00 22,5 16,0 - - 26 14 - - NW 1016,4 10 42 0,0
10.08.2020 15:00:00 23,9 16,6 - - 18 10 - - NW 1016,5 10 42 0,0
10.08.2020 14:00:00 23,9 16,7 - - 9 5 - - NNW 1016,2 9 42 0,0
10.08.2020 13:00:00 23,3 15,7 - - 5 3 - - - 1016,4 9 42 0,0
10.08.2020 12:00:00 22,2 16,3 - - 9 5 - - NNE 1016,2 9 12 0,0
10.08.2020 11:00:00 20,1 15,3 - - 5 3 - - - 1016,8 9 24 0,0
10.08.2020 10:00:00 19,3 15,8 18,0 15,9 8 4 - - NNW 1017,1 9 12 0,0
10.08.2020 09:00:00 17,7 15,1 - - 4 2 - - - 1017,4 9 0 0,0
10.08.2020 08:00:00 16,8 14,9 - - 9 5 - - NW 1017,1 9 6 0,0
10.08.2020 07:00:00 16,0 14,7 - - 5 3 - - NW 1017,3 11 0 0,0
10.08.2020 06:00:00 15,7 14,4 - - 5 3 - - WNW 1017,6 10 0 0,0
10.08.2020 05:00:00 16,2 14,7 - - 5 3 - - WNW 1017,8 10 0 0,0
10.08.2020 04:00:00 15,9 14,5 - - 5 3 - - NNW 1017,7 9 0 0,0
10.08.2020 03:00:00 16,4 14,5 - - 4 2 - - NW 1018,2 10 0 0,0
10.08.2020 02:00:00 17,3 14,8 - - 4 2 - - NNE 1018,2 12 0 0,0
10.08.2020 01:00:00 18,7 15,8 - - 8 4 - - E 1018,3 14 - 0,0
10.08.2020 00:00:00 18,2 16,1 - - 2 1 - - N 1018,5 12 0 0,0
09.08.2020 23:00:00 17,0 15,3 - - 2 1 - - SW 1018,3 13 0 0,0
09.08.2020 22:00:00 19,2 15,7 - - 5 3 - - NW 1018,2 15 0 0,0
09.08.2020 21:00:00 20,1 15,5 - - 5 3 - - ESE 1018,0 16 0 0,0
09.08.2020 20:00:00 22,0 15,9 - - 9 5 - - ESE 1017,9 21 0 0,0
09.08.2020 19:00:00 22,5 15,9 - - 9 5 - - ESE 1018,0 21 0 0,0
09.08.2020 18:00:00 23,0 15,9 - - 11 6 - - E 1018,1 10 0 0,0
09.08.2020 17:00:00 23,0 15,5 - - 11 6 - - SE 1018,5 10 30 0,0
09.08.2020 16:00:00 23,0 15,3 - - 16 9 - - SE 1018,8 10 48 0,0
09.08.2020 15:00:00 21,7 15,1 - - 11 6 - - SSE 1019,4 10 36 0,0
09.08.2020 14:00:00 20,8 15,3 - - 9 5 - - SSE 1019,9 10 24 0,0
09.08.2020 13:00:00 19,8 14,8 - - 8 4 - - SE 1020,4 10 6 0,0
09.08.2020 12:00:00 17,8 13,2 - - 8 4 - - SE 1021,0 10 0 0,0
09.08.2020 11:00:00 17,2 13,5 - - 9 5 - - SSE 1021,3 10 0 0,0
09.08.2020 10:00:00 16,5 12,7 17,7 15,7 5 3 - - - 1021,7 10 18 0,0
09.08.2020 09:00:00 15,8 12,9 - - 5 3 - - - 1022,0 10 60 0,0
09.08.2020 08:00:00 14,5 13,0 - - 5 3 - - SSE 1022,2 14 60 0,0
09.08.2020 07:00:00 12,0 11,4 - - 2 1 - - S 1022,2 20 6 0,0
09.08.2020 06:00:00 11,4 10,6 - - 4 2 - - S 1022,2 17 0 0,0
09.08.2020 05:00:00 12,5 11,1 - - 4 2 - - NE 1022,4 22 0 0,0
09.08.2020 04:00:00 12,9 11,1 - - 2 1 - - NNW 1022,7 25 0 0,0
09.08.2020 03:00:00 14,5 11,3 - - 4 2 - - NNW 1022,8 45 0 0,0
09.08.2020 02:00:00 15,4 11,4 - - 4 2 - - NE 1022,6 50 0 0,0
09.08.2020 01:00:00 16,3 12,2 - - 4 2 - - N 1022,7 40 - 0,0
09.08.2020 00:00:00 16,9 12,8 - - 5 3 - - NE 1022,8 30 0 0,0
08.08.2020 23:00:00 17,3 13,4 - - 5 3 - - ENE 1022,7 40 0 0,0
08.08.2020 22:00:00 17,4 13,4 - - 9 5 - - NNW 1022,5 35 0 0,0
08.08.2020 21:00:00 18,9 13,0 - - 9 5 - - NNW 1022,2 35 0 0,0
08.08.2020 20:00:00 19,3 12,6 - - 13 7 - - NNW 1022,1 45 0 0,0

tt = Température de l'air
td = dewpoint
tt -20cm = Température de l'air -20cm
tt -100cm = Température de l'air -100cm
ff = Vitesse du vent
fx = gusts
dd = Direction du vent
ppp = reduced air pressure
vv = visibility
sd = Ensoleillement
rr = Quantités de précipitations

stations d'obs. à proximité